Temperature
13 13 13 13 13 14 14 13 12 11 11 10 9 8 7 7 7 7 6 6 6 5 5 4 3 2 1 1 0 -0 -1 -2 -3 -4 -4 -4 -4 -4 -5 -5 -5 -5 -5
12 12 12 12 13 13 13 12 11 10 10 9 8 7 6 7 6 6 6 6 5 4 4 3 2 1 1 0 -1 -1 -2 -3 -4 -5 -5 -5 -5 -6 -6 -6 -6 -6 -6
11 11 11 12 12 12 11 10 10 9 9 8 6 6 6 6 5 5 5 5 4 3 2 2 1 1 0 -1 -1 -2 -3 -4 -5 -6 -7 -7 -7 -7 -7 -7 -7 -6 -6
10 10 11 11 11 11 10 10 9 9 7 6 5 5 5 5 4 4 4 3 3 2 2 1 1 0 -1 -2 -3 -4 -5 -6 -6 -7 -7 -8 -8 -7 -8 -8 -7 -6 -6
8 9 9 9 9 9 9 8 7 6 5 4 4 4 3 3 3 3 3 2 2 1 1 1 -0 -1 -2 -3 -4 -5 -6 -7 -7 -8 -8 -8 -8 -8 -8 -8 -8 -8 -7
6 7 7 7 7 7 6 5 4 3 3 3 3 3 3 3 2 2 2 1 1 1 0 -0 -1 -2 -3 -4 -5 -6 -7 -7 -8 -8 -8 -8 -8 -8 -8 -9 -9 -9 -9
4 4 4 5 5 4 4 3 2 2 2 1 1 2 2 2 2 1 1 1 0 0 -0 -1 -2 -3 -4 -5 -6 -7 -7 -8 -8 -8 -9 -9 -8 -8 -9 -9 -9 -9 -9
2 2 2 3 3 2 2 2 1 1 1 1 1 1 1 1 0 0 0 -0 -0 -1 -1 -2 -3 -4 -5 -6 -7 -8 -8 -8 -8 -8 -9 -9 -9 -9 -9 -9 -9 -9 -9
0 1 1 2 2 1 1 1 1 1 1 0 0 0 0 0 -0 -0 -1 -1 -2 -2 -3 -4 -5 -5 -6 -7 -8 -8 -8 -8 -8 -8 -8 -8 -8 -8 -9 -9 -9 -9 -9
-0 0 1 1 2 2 1 1 1 1 0 -0 -0 -0 -0 -1 -1 -2 -3 -3 -3 -3 -4 -5 -6 -6 -8 -8 -8 -8 -9 -8 -8 -8 -7 -7 -7 -7 -7 -8 -8 -9 -10
1 1 2 2 2 1 1 1 0 0 -0 -0 -0 -1 -1 -2 -3 -4 -5 -5 -5 -5 -5 -6 -7 -7 -9 -9 -9 -9 -9 -9 -9 -8 -7 -7 -7 -7 -7 -7 -8 -8 -9
2 2 2 1 1 1 0 0 -0 -0 -1 -1 -1 -2 -2 -3 -4 -5 -5 -6 -7 -7 -7 -7 -8 -9 -9 -9 -9 -9 -9 -9 -9 -8 -8 -7 -7 -7 -7 -7 -7 -7 -8
2 1 1 1 0 -0 -0 -0 -1 -1 -2 -2 -2 -3 -3 -4 -4 -5 -6 -7 -8 -9 -9 -9 -10 -10 -10 -9 -8 -9 -9 -9 -8 -8 -8 -7 -7 -7 -7 -7 -7 -7 -7
2 1 0 -0 -0 -1 -1 -2 -2 -2 -2 -2 -2 -3 -4 -5 -5 -6 -7 -8 -8 -9 -9 -10 -10 -10 -9 -9 -9 -9 -9 -9 -9 -9 -8 -8 -8 -7 -7 -7 -8 -7 -7
1 0 -0 -1 -1 -1 -2 -2 -2 -2 -2 -2 -3 -4 -5 -6 -7 -8 -9 -9 -10 -10 -10 -10 -9 -9 -9 -9 -8 -8 -8 -9 -9 -9 -9 -8 -8 -8 -8 -8 -8 -8 -8
0 -0 -1 -1 -1 -2 -2 -2 -2 -2 -3 -4 -5 -6 -7 -8 -9 -9 -9 -10 -10 -10 -10 -10 -10 -9 -9 -9 -9 -9 -8 -9 -9 -9 -8 -8 -8 -8 -8 -8 -8 -8 -8
0 -0 -1 -1 -2 -2 -2 -2 -3 -4 -5 -6 -6 -7 -8 -9 -9 -9 -10 -10 -10 -10 -10 -10 -10 -10 -9 -9 -9 -9 -9 -8 -9 -8 -8 -8 -8 -8 -8 -8 -8 -8 -8
-1 -1 -1 -2 -2 -2 -3 -3 -4 -5 -5 -6 -7 -7 -8 -9 -9 -10 -10 -10 -10 -10 -10 -10 -10 -10 -10 -9 -9 -9 -9 -8 -8 -8 -8 -8 -8 -8 -8 -8 -8 -8 -8
-1 -2 -2 -2 -3 -3 -4 -4 -5 -5 -6 -7 -7 -8 -8 -9 -10 -10 -10 -10 -10 -10 -10 -10 -10 -10 -9 -9 -9 -9 -9 -8 -8 -8 -8 -8 -8 -8 -8 -8 -8 -8 -8
-2 -2 -3 -3 -4 -4 -4 -5 -6 -6 -7 -8 -8 -9 -9 -9 -10 -10 -10 -10 -10 -10 -10 -10 -10 -9 -9 -9 -9 -8 -8 -8 -8 -8 -8 -8 -8 -8 -8 -8 -8 -8 -8
-3 -3 -3 -4 -4 -4 -5 -6 -6 -7 -8 -9 -9 -10 -10 -10 -10 -10 -10 -10 -10 -10 -10 -10 -9 -9 -9 -9 -8 -8 -8 -8 -8 -8 -8 -8 -7 -7 -7 -7 -7 -8 -8
-3 -3 -4 -4 -4 -5 -6 -7 -7 -8 -9 -9 -9 -10 -10 -10 -10 -10 -10 -10 -10 -10 -10 -10 -9 -9 -9 -8 -8 -8 -8 -8 -8 -8 -8 -7 -7 -7 -7 -7 -7 -8 -8
-3 -3 -4 -4 -5 -6 -7 -8 -8 -9 -9 -10 -10 -10 -10 -10 -10 -10 -10 -10 -10 -10 -10 -10 -9 -9 -8 -8 -8 -8 -8 -8 -8 -8 -8 -7 -7 -7 -7 -7 -7 -7 -7
-3 -4 -4 -5 -6 -7 -8 -8 -9 -10 -10 -10 -10 -10 -10 -10 -10 -10 -10 -10 -10 -9 -9 -9 -9 -9 -8 -8 -8 -8 -8 -8 -8 -8 -8 -7 -7 -7 -7 -7 -7 -7 -7
-4 -4 -5 -6 -7 -8 -9 -9 -10 -10 -10 -10 -10 -10 -10 -10 -10 -10 -10 -9 -9 -9 -9 -9 -9 -8 -8 -8 -8 -8 -8 -8 -8 -8 -7 -7 -7 -7 -7 -7 -7 -7 -7
-4 -5 -6 -7 -8 -9 -9 -10 -10 -10 -10 -10 -10 -10 -10 -10 -10 -10 -9 -9 -9 -8 -8 -8 -8 -8 -8 -8 -8 -8 -8 -8 -7 -7 -7 -7 -7 -7 -7 -7 -7 -7 -8
Wind_Speed
10 11 13 13 13 15 15 15 15 13 16 15 15 14 13 11 10 9 7 8 7 5 4 5 4 4 3 3 3 3 3 4 6 5 4 4 5 8 14 18 18 18 18
10 12 14 14 14 15 14 15 15 16 15 15 15 14 12 11 9 9 8 7 6 5 4 4 4 4 4 4 3 4 4 4 5 6 4 4 7 8 8 10 15 17 17
10 12 13 14 15 14 15 15 16 16 15 15 14 13 11 10 9 8 7 6 5 4 3 3 4 4 5 4 5 5 4 5 5 5 6 4 5 7 9 10 10 11 16
9 11 13 13 13 14 15 15 15 15 15 14 12 11 11 10 9 8 8 7 6 4 2 0 3 5 6 6 5 6 6 6 5 5 6 6 6 8 7 8 11 7 10
8 10 11 13 13 14 15 15 14 14 14 13 13 12 10 8 7 8 7 6 5 3 2 2 3 5 7 6 6 6 5 4 5 5 7 8 8 7 8 7 13 12 10
10 12 14 15 16 16 16 16 16 15 14 13 12 11 9 7 11 10 7 5 3 2 3 4 5 6 7 9 9 10 10 7 5 5 7 10 11 10 9 11 12 14 11
13 14 15 17 18 17 18 18 16 14 13 12 10 9 9 9 10 9 8 4 3 2 3 4 3 4 6 3 8 12 12 14 15 11 10 11 12 11 10 12 12 13 15
14 15 16 18 19 18 17 16 14 12 11 9 8 8 7 7 8 8 7 4 2 2 2 2 3 4 6 8 7 6 6 8 11 10 9 11 11 10 10 12 13 13 13
15 15 15 16 17 16 15 13 11 11 9 7 6 6 6 6 7 6 6 2 0 2 3 4 5 5 11 14 8 6 7 8 14 19 20 19 22 23 18 10 8 11 15
13 13 13 14 14 14 13 11 9 9 8 7 6 5 5 3 4 3 5 3 2 3 4 5 8 10 13 14 8 7 8 9 9 10 11 14 14 16 19 9 7 10 12
12 13 13 13 13 12 11 9 8 8 7 6 6 4 3 1 1 2 1 2 2 3 3 4 5 13 14 16 15 7 11 12 5 6 8 10 9 8 8 6 6 9 12
12 13 12 11 10 10 10 9 8 8 7 6 5 4 3 3 3 3 5 5 6 3 4 4 6 15 16 16 12 13 17 13 6 8 9 9 9 9 10 10 10 10 13
12 12 11 11 10 9 9 9 7 6 5 4 3 2 1 2 4 7 7 9 11 6 5 11 13 15 14 10 12 15 12 6 7 8 9 9 8 9 10 10 11 11 13
12 11 10 10 9 8 7 6 5 5 4 3 3 2 1 3 3 4 4 5 8 8 7 9 12 11 9 10 10 9 6 6 7 8 10 11 11 9 10 9 11 12 12
10 9 9 8 8 7 6 4 5 3 4 3 2 1 0 2 4 8 7 5 5 6 5 2 3 4 5 5 6 6 6 6 7 8 10 11 12 12 12 10 9 11 12
9 7 6 6 5 5 5 4 5 3 5 3 3 2 3 5 8 10 13 14 13 12 6 4 4 5 6 7 8 9 8 7 7 8 9 10 11 12 12 11 10 11 13
8 7 5 5 5 4 4 4 3 4 6 6 6 6 6 7 9 11 12 12 11 10 4 4 5 6 6 7 7 8 9 8 8 8 9 10 10 11 11 12 12 12 13
8 7 6 5 4 4 3 3 2 2 2 3 5 8 8 8 9 11 11 8 6 6 4 5 6 6 7 7 7 8 9 9 9 9 9 10 10 10 12 12 12 13 14
7 5 5 4 4 3 3 3 2 2 2 2 3 4 8 8 8 9 9 4 5 6 6 5 6 7 7 7 8 8 8 9 10 10 10 10 10 10 12 12 13 18 16
5 8 6 4 4 3 3 3 2 2 1 2 3 4 4 3 3 4 4 4 4 6 6 7 7 7 7 8 8 8 9 9 10 9 10 10 10 11 13 14 14 14 14
4 5 7 5 3 3 3 2 1 1 1 2 3 5 7 3 3 5 5 5 5 6 6 7 8 8 7 7 7 9 10 10 10 10 10 11 11 12 12 13 14 14 14
4 4 4 4 3 2 2 1 1 1 2 3 3 4 8 4 4 4 5 6 6 6 6 7 8 8 8 8 9 9 10 11 10 10 11 12 12 13 13 13 13 13 13
4 4 4 3 2 3 3 2 1 2 3 3 3 4 4 4 4 5 5 6 7 7 7 7 8 9 8 10 10 9 10 11 11 12 13 14 14 13 13 13 14 15 14
4 4 4 3 2 2 1 1 2 3 3 3 3 4 4 4 5 7 6 6 7 7 9 9 9 11 13 13 14 14 14 15 16 13 16 16 15 13 12 12 13 14 14
4 4 3 2 1 1 1 2 2 3 3 4 4 4 5 5 6 6 6 7 8 9 10 11 11 12 14 17 18 17 20 24 24 20 15 13 13 13 13 13 13 14 14
4 3 2 1 1 1 2 2 3 3 4 4 4 5 5 6 6 7 7 7 8 9 9 11 13 16 19 19 19 21 24 26 27 26 17 11 12 12 13 12 13 13 13
Wind_Direction
202 182 170 169 165 162 164 162 157 152 151 154 152 150 151 148 143 141 146 152 154 156 159 172 184 173 177 192 194 200 210 203 248 267 255 274 287 292 303 302 301 296 293
193 172 166 161 160 160 159 156 152 150 150 150 149 148 150 147 143 147 152 153 153 159 168 174 194 190 198 206 212 223 228 221 232 273 275 278 280 286 286 288 298 297 296
172 160 156 156 157 154 150 147 147 145 144 145 146 147 144 137 133 134 130 128 126 134 156 189 212 205 223 229 229 231 236 244 240 267 284 277 277 283 286 284 284 283 292
154 151 150 150 146 142 138 139 140 141 140 138 135 130 126 123 123 120 115 111 106 97 86 119 246 227 231 234 235 237 241 253 261 267 282 287 284 280 278 293 303 288 292
123 126 126 122 120 121 123 124 124 124 122 119 116 112 110 111 116 114 109 104 96 75 32 336 285 245 233 245 244 236 232 241 258 267 283 294 296 298 300 299 305 306 295
97 106 109 111 110 109 109 108 106 104 105 108 112 114 108 110 116 111 107 96 82 43 337 314 293 272 271 284 290 291 288 280 278 275 284 292 297 296 297 300 303 304 303
89 97 102 104 103 102 103 101 99 99 100 99 100 103 105 116 117 112 106 100 71 15 328 320 316 308 320 299 289 293 294 292 291 293 291 288 292 293 292 293 293 294 296
91 95 98 100 100 100 100 100 98 97 97 97 100 109 117 132 130 122 111 95 67 16 356 351 317 307 304 291 266 265 263 271 279 282 270 273 277 277 276 291 296 296 290
94 96 99 103 105 105 105 104 104 104 103 108 122 138 148 152 146 133 131 135 174 308 303 311 319 303 305 302 298 280 274 273 288 293 293 293 297 301 303 301 296 299 299
96 96 97 101 105 107 109 110 112 118 126 131 127 132 145 161 177 167 159 184 243 282 296 305 319 315 306 306 303 291 289 284 281 289 296 298 296 294 298 289 277 289 295
97 95 94 97 102 108 110 116 123 120 111 101 95 83 94 160 228 278 283 184 255 305 311 308 303 314 311 311 313 303 295 303 309 311 305 300 298 293 289 276 262 267 282
99 98 99 100 104 109 108 102 96 98 97 94 94 80 49 19 348 329 344 345 335 324 306 294 295 310 314 318 319 310 311 321 326 310 304 301 301 300 298 293 282 270 264
100 98 95 91 89 92 96 95 88 89 99 107 118 115 61 16 359 4 350 337 329 323 295 304 308 315 323 326 316 316 323 321 307 305 304 301 294 288 292 294 292 284 277
99 94 92 91 85 78 83 92 102 112 122 131 126 105 28 349 327 307 293 300 311 305 294 301 317 328 328 320 316 315 306 297 301 299 302 302 303 300 299 298 301 306 303
96 95 91 89 93 89 88 104 120 138 143 132 134 152 215 303 302 322 327 305 295 289 319 357 343 321 316 312 308 302 301 307 307 301 303 305 305 305 303 305 298 302 299
106 99 98 101 101 104 104 85 78 94 82 91 177 222 253 288 319 337 333 328 330 333 352 334 316 312 311 314 315 314 311 305 302 304 303 301 301 302 303 303 300 300 299
111 110 105 107 107 105 98 94 68 36 41 37 22 1 348 347 348 342 335 341 345 346 336 306 302 303 303 302 302 303 304 303 300 300 299 300 300 300 301 302 304 302 300
105 113 113 105 102 99 102 107 111 89 30 353 357 359 354 350 347 344 346 351 339 339 310 300 298 300 301 301 302 303 303 305 305 303 300 299 299 299 300 300 301 300 301
108 108 107 108 110 112 112 107 94 81 55 346 328 338 348 347 353 353 355 337 314 316 311 303 297 297 297 298 298 297 296 297 298 300 300 299 299 299 298 298 299 300 302
117 131 128 124 119 111 100 92 83 62 21 343 325 311 312 346 348 334 330 308 306 307 307 305 303 297 296 295 295 296 298 298 299 299 298 298 298 296 296 297 298 300 299
118 130 127 116 111 110 102 90 74 26 328 313 303 312 339 13 334 318 316 311 306 307 306 306 302 299 294 291 292 294 294 296 295 295 295 296 296 297 296 295 295 295 295
125 120 119 117 110 102 97 73 31 339 320 317 310 318 341 342 312 306 306 309 308 302 299 298 296 292 291 292 294 296 295 294 294 293 293 294 295 295 295 294 295 299 304
124 120 110 103 93 69 71 36 357 330 320 315 313 317 324 321 314 306 307 310 309 304 300 295 293 294 291 291 288 283 284 286 288 288 290 293 293 293 294 297 302 306 308
121 116 111 102 92 79 41 345 335 329 324 318 317 312 311 309 307 306 304 301 301 297 297 296 291 291 293 298 298 292 286 284 285 283 281 284 293 300 304 305 305 305 309
114 108 105 103 87 38 342 327 322 319 320 321 318 314 311 306 301 298 296 296 297 297 296 299 296 295 297 300 301 299 299 302 304 303 299 301 306 308 308 306 307 310 311
114 110 104 99 78 338 316 308 306 310 307 303 299 296 295 295 294 294 295 295 298 301 300 301 297 299 302 304 302 305 309 312 313 314 316 312 313 312 313 311 310 312 312
Height
1416 1417 1419 1422 1427 1433 1438 1442 1447 1452 1456 1462 1467 1472 1478 1482 1486 1488 1491 1492 1493 1492 1492 1491 1490 1489 1488 1487 1485 1482 1480 1477 1472 1468 1467 1464 1461 1457 1453 1450 1445 1441 1437
1409 1410 1412 1416 1421 1426 1431 1437 1442 1447 1452 1457 1462 1468 1474 1478 1482 1485 1487 1488 1488 1488 1487 1486 1485 1484 1483 1481 1479 1477 1474 1471 1467 1462 1459 1457 1454 1450 1446 1442 1438 1434 1430
1403 1404 1407 1411 1416 1421 1426 1432 1437 1442 1447 1452 1459 1465 1471 1475 1479 1481 1483 1484 1483 1483 1483 1482 1480 1479 1477 1475 1473 1470 1468 1465 1461 1457 1453 1450 1447 1444 1439 1434 1430 1426 1422
1397 1398 1402 1407 1412 1417 1423 1429 1434 1439 1444 1450 1457 1464 1469 1473 1477 1479 1479 1480 1479 1479 1478 1477 1475 1474 1472 1469 1467 1464 1462 1459 1456 1452 1448 1444 1441 1437 1433 1427 1421 1417 1414
1393 1395 1399 1403 1409 1415 1420 1426 1431 1436 1442 1449 1456 1463 1468 1472 1475 1476 1476 1476 1475 1474 1473 1471 1470 1468 1465 1463 1461 1459 1456 1454 1451 1447 1443 1439 1434 1430 1426 1421 1415 1409 1405
1392 1394 1397 1401 1407 1413 1418 1424 1430 1436 1443 1450 1457 1463 1468 1471 1472 1473 1473 1472 1471 1470 1468 1466 1464 1462 1460 1457 1456 1454 1452 1450 1446 1443 1438 1434 1429 1425 1421 1416 1411 1404 1398
1392 1394 1398 1402 1407 1413 1419 1425 1432 1439 1446 1453 1460 1464 1467 1468 1469 1469 1469 1468 1467 1465 1463 1460 1458 1456 1454 1451 1449 1447 1446 1444 1442 1439 1433 1429 1424 1420 1415 1410 1406 1401 1395
1394 1397 1401 1405 1410 1417 1424 1430 1437 1443 1450 1456 1460 1463 1464 1465 1465 1465 1465 1465 1463 1460 1457 1454 1452 1449 1448 1446 1444 1442 1440 1438 1436 1432 1427 1422 1419 1415 1411 1407 1401 1394 1387
1401 1404 1409 1413 1418 1424 1430 1435 1441 1446 1451 1455 1458 1461 1462 1463 1463 1462 1462 1460 1458 1455 1452 1449 1446 1444 1443 1441 1440 1437 1434 1431 1429 1425 1421 1417 1414 1410 1406 1400 1394 1388 1379
1409 1412 1416 1420 1424 1429 1434 1440 1444 1448 1451 1455 1458 1460 1461 1461 1460 1459 1458 1455 1453 1450 1447 1445 1442 1440 1438 1437 1435 1431 1427 1424 1421 1416 1413 1410 1407 1404 1400 1396 1390 1383 1375
1415 1418 1422 1426 1430 1435 1439 1444 1447 1451 1454 1457 1459 1459 1460 1459 1458 1457 1454 1451 1448 1445 1442 1440 1437 1435 1434 1432 1429 1425 1421 1419 1414 1410 1406 1403 1400 1397 1394 1390 1385 1379 1372
1422 1425 1429 1433 1437 1441 1444 1448 1451 1453 1456 1457 1458 1458 1458 1457 1455 1453 1450 1448 1445 1441 1438 1436 1433 1431 1429 1426 1422 1419 1417 1413 1409 1405 1401 1398 1394 1391 1387 1383 1379 1374 1368
1429 1432 1435 1439 1442 1446 1448 1451 1453 1455 1456 1457 1457 1457 1455 1453 1451 1449 1446 1443 1440 1437 1434 1432 1429 1427 1424 1420 1418 1415 1412 1408 1405 1401 1396 1393 1389 1385 1380 1376 1371 1365 1359
1435 1438 1441 1444 1446 1449 1451 1453 1454 1455 1456 1456 1455 1453 1451 1449 1447 1445 1442 1439 1436 1433 1430 1428 1425 1422 1419 1416 1413 1411 1408 1404 1401 1397 1392 1388 1383 1379 1374 1369 1363 1356 1348
1441 1443 1445 1447 1449 1451 1452 1454 1454 1455 1454 1453 1452 1450 1448 1446 1443 1442 1439 1436 1433 1430 1427 1424 1421 1418 1415 1412 1409 1407 1404 1401 1397 1393 1388 1383 1378 1373 1368 1364 1357 1350 1343
1445 1447 1449 1450 1451 1453 1453 1454 1453 1453 1452 1450 1448 1446 1444 1443 1440 1438 1435 1432 1429 1427 1423 1420 1417 1414 1411 1408 1405 1402 1399 1396 1392 1388 1384 1379 1374 1368 1363 1357 1352 1344 1337
1449 1450 1451 1452 1453 1453 1453 1453 1452 1451 1449 1447 1445 1444 1442 1439 1437 1434 1431 1429 1425 1423 1420 1417 1414 1411 1408 1405 1401 1398 1395 1392 1388 1384 1379 1375 1370 1364 1358 1352 1345 1338 1331
1451 1452 1453 1453 1453 1453 1452 1451 1450 1448 1447 1445 1443 1441 1439 1436 1434 1431 1428 1425 1423 1420 1417 1414 1411 1408 1405 1401 1398 1395 1391 1388 1384 1380 1375 1371 1366 1360 1354 1347 1340 1334 1326
1453 1453 1453 1453 1452 1452 1450 1449 1448 1446 1444 1442 1440 1438 1436 1433 1431 1428 1425 1423 1419 1417 1414 1411 1408 1405 1402 1398 1395 1392 1388 1384 1380 1376 1372 1367 1362 1356 1350 1343 1336 1329 1323
1453 1453 1453 1452 1451 1450 1449 1447 1445 1443 1441 1439 1437 1435 1433 1430 1428 1425 1423 1420 1417 1414 1411 1408 1405 1402 1399 1396 1392 1388 1385 1381 1377 1373 1368 1364 1359 1353 1346 1339 1332 1325 1318
1452 1452 1451 1450 1449 1448 1447 1445 1443 1441 1439 1436 1434 1432 1430 1427 1425 1423 1420 1418 1415 1412 1409 1406 1403 1400 1397 1393 1389 1385 1381 1377 1374 1369 1365 1360 1355 1349 1342 1335 1329 1322 1314
1451 1451 1450 1449 1447 1446 1444 1442 1440 1438 1436 1433 1431 1429 1427 1424 1422 1420 1418 1415 1413 1410 1407 1404 1401 1398 1394 1390 1386 1382 1378 1374 1370 1366 1362 1357 1351 1345 1338 1332 1325 1319 1313
1450 1449 1448 1446 1445 1443 1441 1439 1437 1435 1432 1430 1428 1426 1424 1422 1420 1418 1415 1413 1411 1408 1405 1402 1399 1396 1392 1388 1384 1380 1375 1371 1367 1363 1358 1352 1347 1341 1335 1330 1323 1317 1310
1448 1447 1445 1444 1442 1440 1438 1436 1433 1431 1429 1427 1425 1423 1421 1419 1417 1415 1413 1411 1408 1406 1403 1400 1397 1393 1389 1386 1381 1377 1373 1369 1365 1360 1356 1350 1345 1340 1334 1328 1321 1314 1307
1446 1444 1442 1440 1438 1436 1434 1432 1430 1428 1426 1424 1422 1420 1418 1416 1415 1413 1410 1408 1406 1403 1401 1398 1394 1390 1387 1382 1378 1374 1370 1367 1363 1359 1355 1350 1344 1338 1332 1325 1318 1311 1304
1443 1441 1439 1437 1435 1433 1431 1429 1427 1425 1423 1421 1419 1417 1416 1414 1412 1410 1408 1405 1403 1400 1398 1395 1392 1388 1383 1379 1375 1371 1367 1364 1360 1356 1352 1347 1341 1335 1328 1321 1315 1308 1302